Weather History for KENL - May, 2013

Change the Weather History Date:

Sunday, May 26, 2013

  Actual Average (KSLO) Record (KSLO)
Temperature  
Mean Temperature 69 °F -  
Max Temperature 81 °F 78 °F 92 °F (1977)
Min Temperature 57 °F 56 °F 39 °F (1979)
Cooling Degree Days 4    
Growing Degree Days 19 (Base 50)    
Moisture  
Dew Point 57 °F    
Average Humidity 65    
Maximum Humidity 82    
Minimum Humidity 52    
Precipitation  
Precipitation 0.00 in - - ()
Sea Level Pressure  
Sea Level Pressure 30.15 in    
Wind  
Wind Speed 8 mph (ESE)    
Max Wind Speed 14 mph    
Max Gust Speed 17 mph    
Visibility 10 miles    
Events Thunderstorm    
Averages and records for this station are not official NWS values.
T = Trace of Precipitation, MM = Missing Value Source: NWS Daily Summary

Daily Weather History Graph

Daily Weather History Graph

Search for Another Location

Airport or City:

Trip Planner

Search our weather history database for the weather conditions in past years. The results will help you decide how hot, cold, wet, or windy it might be!

Date:

Astronomy

May. 26, 2013 Rise Set
Actual Time 5:36 AM CDT 8:10 PM CDT
Civil Twilight 5:05 AM CDT 8:41 PM CDT
Nautical Twilight 4:27 AM CDT 9:19 PM CDT
Astronomical Twilight 3:45 AM CDT 10:02 PM CDT
Moon 9:58 PM CDT (5/26) 7:05 AM CDT (5/26)
Length of Visible Light 15h 35m
Length of Day
14h 33m
Waning Gibbous, 96% of the Moon is Illuminated
May 26
Waning Gibbous
May 31
Last Quarter
Jun 8
New
Jun 16
First Quarter
Jun 23
Full

Hourly Weather History & Observations

Time (CDT) Temp. Heat Index Dew Point Humidity Pressure Visibility Wind Dir Wind Speed Gust Speed Precip Events Conditions
12:15 AM 61.9 °F - 48.4 °F 61% 30.23 in 10.0 mi East 9.2 mph - N/A   Overcast
12:35 AM 61.5 °F - 48.4 °F 62% 30.22 in 10.0 mi ENE 8.1 mph - N/A   Overcast
12:55 AM 60.3 °F - 49.1 °F 67% 30.23 in 10.0 mi East 10.4 mph - N/A   Mostly Cloudy
1:15 AM 59.9 °F - 50.0 °F 70% 30.22 in 10.0 mi East 6.9 mph - N/A   Mostly Cloudy
1:35 AM 59.9 °F - 50.0 °F 70% 30.22 in 10.0 mi East 8.1 mph - N/A   Mostly Cloudy
1:55 AM 59.9 °F - 50.0 °F 70% 30.22 in 10.0 mi East 6.9 mph - N/A   Mostly Cloudy
2:15 AM 59.9 °F - 50.0 °F 70% 30.21 in 10.0 mi East 5.8 mph - N/A   Overcast
2:35 AM 59.9 °F - 50.2 °F 70% 30.20 in 10.0 mi East 9.2 mph - N/A   Overcast
2:55 AM 59.4 °F - 50.7 °F 73% 30.20 in 10.0 mi East 9.2 mph - N/A   Overcast
3:15 AM 59.2 °F - 50.9 °F 74% 30.20 in 10.0 mi East 9.2 mph - N/A   Overcast
3:35 AM 59.0 °F - 51.1 °F 75% 30.20 in 10.0 mi East 6.9 mph - N/A   Scattered Clouds
3:55 AM 58.5 °F - 51.3 °F 77% 30.20 in 10.0 mi East 5.8 mph - N/A   Clear
4:15 AM 58.1 °F - 51.3 °F 78% 30.20 in 10.0 mi East 8.1 mph - N/A   Clear
4:35 AM 57.7 °F - 51.4 °F 79% 30.20 in 10.0 mi East 6.9 mph - N/A Thunderstorm Clear
4:55 AM 57.6 °F - 51.4 °F 80% 30.20 in 10.0 mi East 5.8 mph - N/A Thunderstorm Clear
5:15 AM 57.6 °F - 51.6 °F 81% 30.20 in 10.0 mi East 6.9 mph - N/A   Clear
5:35 AM 57.4 °F - 51.4 °F 81% 30.21 in 10.0 mi East 5.8 mph - N/A   Scattered Clouds
5:55 AM 57.4 °F - 51.8 °F 82% 30.21 in 10.0 mi ESE 5.8 mph - N/A   Scattered Clouds
6:15 AM 57.7 °F - 51.8 °F 81% 30.20 in 10.0 mi ESE 4.6 mph - N/A Thunderstorm Scattered Clouds
6:35 AM 58.5 °F - 51.8 °F 79% 30.20 in 10.0 mi East 6.9 mph - N/A   Scattered Clouds
6:55 AM 58.8 °F - 52.0 °F 78% 30.20 in 10.0 mi East 5.8 mph - N/A   Scattered Clouds
7:15 AM 59.9 °F - 52.2 °F 76% 30.20 in 10.0 mi ESE 8.1 mph - N/A   Scattered Clouds
7:35 AM 60.8 °F - 52.5 °F 74% 30.20 in 10.0 mi East 6.9 mph - N/A   Scattered Clouds
7:55 AM 61.0 °F - 52.7 °F 74% 30.22 in 10.0 mi East 9.2 mph - N/A   Overcast
8:15 AM 61.7 °F - 52.9 °F 73% 30.22 in 10.0 mi East 10.4 mph - N/A   Overcast
8:35 AM 62.6 °F - 53.6 °F 72% 30.21 in 10.0 mi ESE 6.9 mph - N/A   Overcast
8:55 AM 63.5 °F - 54.0 °F 71% 30.22 in 10.0 mi ESE 8.1 mph 16.1 mph N/A   Overcast
9:15 AM 64.4 °F - 54.5 °F 70% 30.22 in 10.0 mi East 8.1 mph - N/A   Overcast
9:35 AM 66.6 °F - 55.8 °F 68% 30.21 in 10.0 mi East 9.2 mph - N/A   Scattered Clouds
9:55 AM 68.0 °F - 55.8 °F 65% 30.20 in 10.0 mi East 13.8 mph - N/A   Scattered Clouds
10:15 AM 70.0 °F - 56.5 °F 62% 30.20 in 10.0 mi East 9.2 mph - N/A   Clear
10:35 AM 71.2 °F - 57.0 °F 61% 30.21 in 10.0 mi ESE 12.7 mph 16.1 mph N/A Thunderstorm Clear
10:55 AM 72.3 °F - 57.9 °F 60% 30.20 in 10.0 mi ESE 9.2 mph 16.1 mph N/A   Clear
11:15 AM 73.8 °F - 58.5 °F 59% 30.20 in 10.0 mi ESE 6.9 mph 16.1 mph N/A   Clear
11:35 AM 74.7 °F - 58.3 °F 57% 30.20 in 10.0 mi ESE 10.4 mph 17.3 mph N/A   Clear
11:55 AM 76.1 °F - 58.6 °F 55% 30.20 in 10.0 mi SE 9.2 mph - N/A   Clear
12:15 PM 76.8 °F - 59.4 °F 55% 30.19 in 10.0 mi SSE 11.5 mph 17.3 mph N/A   Scattered Clouds
12:35 PM 77.0 °F - 59.0 °F 54% 30.18 in 10.0 mi SSE 11.5 mph - N/A   Scattered Clouds
12:55 PM 77.0 °F - 59.5 °F 55% 30.18 in 10.0 mi ESE 11.5 mph - N/A   Scattered Clouds
1:15 PM 77.9 °F - 59.9 °F 54% 30.17 in 10.0 mi SSE 13.8 mph - N/A   Scattered Clouds
1:35 PM 79.5 °F - 60.6 °F 52% 30.16 in 10.0 mi SE 10.4 mph - N/A   Scattered Clouds
1:55 PM 78.3 °F - 60.6 °F 54% 30.16 in 10.0 mi SSE 10.4 mph 16.1 mph N/A   Mostly Cloudy
2:15 PM 79.0 °F - 61.2 °F 54% 30.16 in 10.0 mi SE 10.4 mph - N/A   Mostly Cloudy
2:35 PM 77.5 °F - 60.4 °F 55% 30.16 in 10.0 mi ESE 8.1 mph - N/A   Overcast
2:55 PM 78.3 °F - 60.8 °F 55% 30.15 in 10.0 mi ESE 5.8 mph - N/A   Overcast
3:15 PM 77.9 °F - 61.5 °F 57% 30.14 in 10.0 mi East 3.5 mph - N/A   Overcast
3:35 PM 80.2 °F 81.5 °F 62.8 °F 55% 30.13 in 10.0 mi East 5.8 mph - N/A   Mostly Cloudy
3:55 PM 80.1 °F 81.4 °F 62.4 °F 55% 30.12 in 10.0 mi ESE 6.9 mph - N/A   Scattered Clouds
4:15 PM 79.9 °F - 62.6 °F 55% 30.11 in 10.0 mi East 6.9 mph - N/A   Mostly Cloudy
4:35 PM 80.6 °F 81.8 °F 62.4 °F 54% 30.11 in 10.0 mi ESE 10.4 mph - N/A   Scattered Clouds
4:55 PM 81.7 °F 83.2 °F 63.9 °F 55% 30.10 in 10.0 mi ESE 9.2 mph - N/A   Clear
5:15 PM 81.0 °F 82.2 °F 63.0 °F 54% 30.09 in 10.0 mi SE 11.5 mph - N/A   Clear
5:35 PM 81.1 °F 82.7 °F 63.9 °F 56% 30.08 in 10.0 mi SE 6.9 mph - N/A   Clear
5:55 PM 80.2 °F 81.6 °F 63.3 °F 56% 30.08 in 10.0 mi ESE 10.4 mph - N/A   Clear
6:15 PM 79.7 °F - 63.1 °F 57% 30.07 in 10.0 mi ESE 9.2 mph - N/A   Clear
6:35 PM 79.3 °F - 61.9 °F 55% 30.07 in 10.0 mi SE 11.5 mph - N/A   Clear
6:55 PM 78.8 °F - 62.1 °F 56% 30.07 in 10.0 mi SE 8.1 mph - N/A   Clear
7:15 PM 77.9 °F - 62.4 °F 59% 30.07 in 10.0 mi SE 6.9 mph - N/A   Clear
7:35 PM 76.5 °F - 63.1 °F 63% 30.07 in 10.0 mi SE 6.9 mph - N/A   Clear
7:55 PM 76.1 °F - 63.1 °F 64% 30.06 in 10.0 mi SE 6.9 mph - N/A   Clear
8:15 PM 75.4 °F - 62.8 °F 65% 30.06 in 10.0 mi SE 9.2 mph - N/A   Clear
8:35 PM 75.2 °F - 62.8 °F 65% 30.06 in 10.0 mi SE 8.1 mph - N/A   Clear
8:55 PM 74.7 °F - 62.8 °F 66% 30.07 in 10.0 mi SE 8.1 mph - N/A   Clear
9:15 PM 74.3 °F - 63.0 °F 68% 30.07 in 10.0 mi SE 8.1 mph - N/A   Clear
9:35 PM 73.8 °F - 63.0 °F 69% 30.07 in 10.0 mi SE 9.2 mph - N/A   Clear
9:55 PM 73.6 °F - 63.0 °F 69% 30.07 in 10.0 mi SE 9.2 mph - N/A   Clear
10:15 PM 73.4 °F - 62.6 °F 69% 30.07 in 10.0 mi SE 9.2 mph - N/A   Clear
10:35 PM 73.0 °F - 62.4 °F 69% 30.07 in 10.0 mi SSE 9.2 mph - N/A   Clear
10:55 PM 73.2 °F - 61.9 °F 68% 30.07 in 10.0 mi SSE 10.4 mph - N/A   Scattered Clouds
11:15 PM 73.0 °F - 61.7 °F 67% 30.06 in 10.0 mi SSE 9.2 mph - N/A   Clear
11:35 PM 72.5 °F - 61.3 °F 68% 30.05 in 10.0 mi SSE 10.4 mph - N/A   Scattered Clouds
11:55 PM 72.7 °F - 61.3 °F 67% 30.05 in 10.0 mi SSE 10.4 mph - N/A   Clear